Cheikh El Mokrani — C6WD5 — position and weather

sailwx.info

Track history (hours):
 
Tides and Currents Weather Stations Pressure Air Temp Water Temp Dewpoint Dewpoint Depression Visibility Wind Speed Wind Dir Waves Ship Positions

Cheikh El Mokrani

Last reported at 2014-Oct-30 22:33 UTC. Time now 2014-Nov-01 09:00 UTC.
Position N 35°58' W 005°20'.

Length 220 m; draft 8.1 m.

Type: Ship (hazmat cat D). MMSI: 309979000.

Date/timePositionNaut miles runAvg speedWind from/ knotsBaromVisibWave heightAir tempDewpointWater temp
2014-Oct-30 22:33N 35°58' W 005°20'11415.7
2014-Oct-30 15:20N 36°10' W 007°40'3316.4
2014-Oct-30 13:18N 36°18' W 008°20'1216.1
2014-Oct-30 12:33N 36°21' W 008°34'2116.3
2014-Oct-30 11:15N 36°26' W 008°60'4415.2
2014-Oct-30 08:23N 36°55' W 009°41'3116.6
2014-Oct-30 06:32N 37°24' W 009°49'1716.7
2014-Oct-30 05:33N 37°41' W 009°53'1717.2
2014-Oct-30 04:34N 37°57' W 009°58'1917.4
2014-Oct-30 03:29N 38°15' W 010°04'2317.4
2014-Oct-30 02:09N 38°38' W 010°11'1117.6
2014-Oct-30 01:33N 38°49' W 010°12'1717.4
2014-Oct-30 00:33N 39°06' W 010°12'57715.6
2014-Oct-28 11:29N 48°18' W 006°20'11615.9
2014-Oct-28 04:12N 49°33' W 004°04'1217.7
2014-Oct-28 03:33N 49°38' W 003°49'1818.5
2014-Oct-28 02:33N 49°48' W 003°25'1918.6
2014-Oct-28 01:34N 49°57' W 002°60'1817.7
2014-Oct-28 00:34N 50°03' W 002°34'1616.2
2014-Oct-27 23:33N 50°08' W 002°10'1514.6
2014-Oct-27 22:33N 50°11' W 001°48'1614.1
2014-Oct-27 21:26N 50°15' W 001°24'1314.8
2014-Oct-27 20:33N 50°19' W 001°04'1716.7
2014-Oct-27 19:33N 50°23' W 000°39'1818.2
2014-Oct-27 18:33N 50°28' W 000°11'1918.8
2014-Oct-27 17:33N 50°33' E 000°17'1818.3
2014-Oct-27 16:33N 50°40' E 000°44'1717.3
2014-Oct-27 15:33N 50°50' E 001°06'1515.3
2014-Oct-27 14:33N 51°00' E 001°25'1413.8
2014-Oct-27 13:34N 51°11' E 001°38'1313.3
2014-Oct-27 12:33N 51°24' E 001°34'8 7.7
2014-Oct-27 11:34N 51°30' E 001°28'9 8.7
2014-Oct-27 10:33N 51°35' E 001°16'1413.5
2014-Oct-27 09:33N 51°29' E 000°57'9 9.1
2014-Oct-27 08:33N 51°26' E 000°43'0 0.0
2014-Oct-26 11:11N 51°26' E 000°42'0 0.6
2014-Oct-26 10:34N 51°26' E 000°43'8 8.0
2014-Oct-26 09:34N 51°29' E 000°55'1616.2
2014-Oct-26 08:33N 51°36' E 001°18'1717.1
2014-Oct-26 07:33N 51°49' E 001°37'1413.5
2014-Oct-26 06:33N 51°36' E 001°41'7 6.5
2014-Oct-26 05:33N 51°29' E 001°38'7 7.1
2014-Oct-26 04:33N 51°34' E 001°47'1 0.5
2014-Oct-26 03:33N 51°34' E 001°48'0 0.3
2014-Oct-26 02:33N 51°34' E 001°48'1 1.0
2014-Oct-26 01:33N 51°34' E 001°50'2 1.6
2014-Oct-26 00:34N 51°34' E 001°47'1 1.0
2014-Oct-25 23:33N 51°33' E 001°46'2 1.6
2014-Oct-25 22:33N 51°32' E 001°47'2 1.9
2014-Oct-25 21:33N 51°30' E 001°46'2 2.1
2014-Oct-25 20:34N 51°28' E 001°47'3 3.1
2014-Oct-25 19:33N 51°25' E 001°46'5 4.8
2014-Oct-25 18:33N 51°20' E 001°43'6 6.2
2014-Oct-25 17:33N 51°15' E 001°40'7 7.0
2014-Oct-25 16:33N 51°08' E 001°41'1413.7
2014-Oct-25 15:34N 50°56' E 001°28'3014.6
2014-Oct-25 13:31N 50°32' E 001°01'  
2014-Oct-23 03:06N 41°19' W 009°57'2314.6
2014-Oct-23 01:30N 40°56' W 009°57'1614.6
2014-Oct-23 00:24N 40°40' W 009°57'8414.4
2014-Oct-22 18:33N 39°15' W 009°57'1414.1
2014-Oct-22 17:33N 39°01' W 009°57'1414.5
2014-Oct-22 16:33N 38°47' W 009°57'1514.5
2014-Oct-22 15:33N 38°32' W 009°54'1515.1
2014-Oct-22 14:33N 38°17' W 009°50'1515.2
2014-Oct-22 13:33N 38°03' W 009°46'1515.1
2014-Oct-22 12:33N 37°48' W 009°41'1514.8
2014-Oct-22 11:33N 37°34' W 009°37'1515.3
2014-Oct-22 10:33N 37°19' W 009°32'1616.1
2014-Oct-22 09:33N 37°03' W 009°28'1615.9
2014-Oct-22 08:33N 36°48' W 009°21'1615.5
2014-Oct-22 07:33N 36°39' W 009°05'1716.6
2014-Oct-22 06:33N 36°34' W 008°46'1716.8
2014-Oct-22 05:33N 36°30' W 008°26'1717.1
2014-Oct-22 04:33N 36°25' W 008°05'1717.2
2014-Oct-22 03:32N 36°20' W 007°44'1717.3
2014-Oct-22 02:32N 36°15' W 007°24'8917.2
2014-Oct-21 21:22N 35°58' W 005°36'1113.1
2014-Oct-21 20:34N 36°02' W 005°24'5 4.8
2014-Oct-21 19:31N 36°07' W 005°22'0 0.1
2014-Oct-21 18:31N 36°07' W 005°22'0 0.1
2014-Oct-21 17:25N 36°06' W 005°22'0 0.1
2014-Oct-21 16:31N 36°06' W 005°22'0 0.0
2014-Oct-21 15:28N 36°06' W 005°22'0 0.0
2014-Oct-21 14:31N 36°06' W 005°22'1 0.9
2014-Oct-21 13:33N 36°05' W 005°21'10 8.9
2014-Oct-21 12:25N 36°05' W 005°09'0 0.3
2014-Oct-21 11:33N 36°05' W 005°09'0 0.4
2014-Oct-21 10:29N 36°06' W 005°09'1 0.7
2014-Oct-21 09:33N 36°06' W 005°10'0 0.5
2014-Oct-21 08:33N 36°05' W 005°10'0 0.4
2014-Oct-21 07:34N 36°06' W 005°10'1 0.1
2014-Oct-21 03:25N 36°06' W 005°10'  
Track history (hours):
 
Tides and Currents Weather Stations Pressure Air Temp Water Temp Dewpoint Dewpoint Depression Visibility Wind Speed Wind Dir Waves Ship Positions

Cheikh El Mokrani

Last reported at 2014-Oct-30 22:33 UTC. Time now 2014-Nov-01 09:00 UTC.
Position N 35°58' W 005°20'.

Length 220 m; draft 8.1 m.

Type: Ship (hazmat cat D). MMSI: 309979000.

Date/timePositionNaut miles runAvg speedWind from/ knotsBaromVisibWave heightAir tempDewpointWater temp
2014-Oct-30 22:33N 35°58' W 005°20'11415.7
2014-Oct-30 15:20N 36°10' W 007°40'3316.4
2014-Oct-30 13:18N 36°18' W 008°20'1216.1
2014-Oct-30 12:33N 36°21' W 008°34'2116.3
2014-Oct-30 11:15N 36°26' W 008°60'4415.2
2014-Oct-30 08:23N 36°55' W 009°41'3116.6
2014-Oct-30 06:32N 37°24' W 009°49'1716.7
2014-Oct-30 05:33N 37°41' W 009°53'1717.2
2014-Oct-30 04:34N 37°57' W 009°58'1917.4
2014-Oct-30 03:29N 38°15' W 010°04'2317.4
2014-Oct-30 02:09N 38°38' W 010°11'1117.6
2014-Oct-30 01:33N 38°49' W 010°12'1717.4
2014-Oct-30 00:33N 39°06' W 010°12'57715.6
2014-Oct-28 11:29N 48°18' W 006°20'11615.9
2014-Oct-28 04:12N 49°33' W 004°04'1217.7
2014-Oct-28 03:33N 49°38' W 003°49'1818.5
2014-Oct-28 02:33N 49°48' W 003°25'1918.6
2014-Oct-28 01:34N 49°57' W 002°60'1817.7
2014-Oct-28 00:34N 50°03' W 002°34'1616.2
2014-Oct-27 23:33N 50°08' W 002°10'1514.6
2014-Oct-27 22:33N 50°11' W 001°48'1614.1
2014-Oct-27 21:26N 50°15' W 001°24'1314.8
2014-Oct-27 20:33N 50°19' W 001°04'1716.7
2014-Oct-27 19:33N 50°23' W 000°39'1818.2
2014-Oct-27 18:33N 50°28' W 000°11'1918.8
2014-Oct-27 17:33N 50°33' E 000°17'1818.3
2014-Oct-27 16:33N 50°40' E 000°44'1717.3
2014-Oct-27 15:33N 50°50' E 001°06'1515.3
2014-Oct-27 14:33N 51°00' E 001°25'1413.8
2014-Oct-27 13:34N 51°11' E 001°38'1313.3
2014-Oct-27 12:33N 51°24' E 001°34'8 7.7
2014-Oct-27 11:34N 51°30' E 001°28'9 8.7
2014-Oct-27 10:33N 51°35' E 001°16'1413.5
2014-Oct-27 09:33N 51°29' E 000°57'9 9.1
2014-Oct-27 08:33N 51°26' E 000°43'0 0.0
2014-Oct-26 11:11N 51°26' E 000°42'0 0.6
2014-Oct-26 10:34N 51°26' E 000°43'8 8.0
2014-Oct-26 09:34N 51°29' E 000°55'1616.2
2014-Oct-26 08:33N 51°36' E 001°18'1717.1
2014-Oct-26 07:33N 51°49' E 001°37'1413.5
2014-Oct-26 06:33N 51°36' E 001°41'7 6.5
2014-Oct-26 05:33N 51°29' E 001°38'7 7.1
2014-Oct-26 04:33N 51°34' E 001°47'1 0.5
2014-Oct-26 03:33N 51°34' E 001°48'0 0.3
2014-Oct-26 02:33N 51°34' E 001°48'1 1.0
2014-Oct-26 01:33N 51°34' E 001°50'2 1.6
2014-Oct-26 00:34N 51°34' E 001°47'1 1.0
2014-Oct-25 23:33N 51°33' E 001°46'2 1.6
2014-Oct-25 22:33N 51°32' E 001°47'2 1.9
2014-Oct-25 21:33N 51°30' E 001°46'2 2.1
2014-Oct-25 20:34N 51°28' E 001°47'3 3.1
2014-Oct-25 19:33N 51°25' E 001°46'5 4.8
2014-Oct-25 18:33N 51°20' E 001°43'6 6.2
2014-Oct-25 17:33N 51°15' E 001°40'7 7.0
2014-Oct-25 16:33N 51°08' E 001°41'1413.7
2014-Oct-25 15:34N 50°56' E 001°28'3014.6
2014-Oct-25 13:31N 50°32' E 001°01'  
2014-Oct-23 03:06N 41°19' W 009°57'2314.6
2014-Oct-23 01:30N 40°56' W 009°57'1614.6
2014-Oct-23 00:24N 40°40' W 009°57'8414.4
2014-Oct-22 18:33N 39°15' W 009°57'1414.1
2014-Oct-22 17:33N 39°01' W 009°57'1414.5
2014-Oct-22 16:33N 38°47' W 009°57'1514.5
2014-Oct-22 15:33N 38°32' W 009°54'1515.1
2014-Oct-22 14:33N 38°17' W 009°50'1515.2
2014-Oct-22 13:33N 38°03' W 009°46'1515.1
2014-Oct-22 12:33N 37°48' W 009°41'1514.8
2014-Oct-22 11:33N 37°34' W 009°37'1515.3
2014-Oct-22 10:33N 37°19' W 009°32'1616.1
2014-Oct-22 09:33N 37°03' W 009°28'1615.9
2014-Oct-22 08:33N 36°48' W 009°21'1615.5
2014-Oct-22 07:33N 36°39' W 009°05'1716.6
2014-Oct-22 06:33N 36°34' W 008°46'1716.8
2014-Oct-22 05:33N 36°30' W 008°26'1717.1
2014-Oct-22 04:33N 36°25' W 008°05'1717.2
2014-Oct-22 03:32N 36°20' W 007°44'1717.3
2014-Oct-22 02:32N 36°15' W 007°24'8917.2
2014-Oct-21 21:22N 35°58' W 005°36'1113.1
2014-Oct-21 20:34N 36°02' W 005°24'5 4.8
2014-Oct-21 19:31N 36°07' W 005°22'0 0.1
2014-Oct-21 18:31N 36°07' W 005°22'0 0.1
2014-Oct-21 17:25N 36°06' W 005°22'0 0.1
2014-Oct-21 16:31N 36°06' W 005°22'0 0.0
2014-Oct-21 15:28N 36°06' W 005°22'0 0.0
2014-Oct-21 14:31N 36°06' W 005°22'1 0.9
2014-Oct-21 13:33N 36°05' W 005°21'10 8.9
2014-Oct-21 12:25N 36°05' W 005°09'0 0.3
2014-Oct-21 11:33N 36°05' W 005°09'0 0.4
2014-Oct-21 10:29N 36°06' W 005°09'1 0.7
2014-Oct-21 09:33N 36°06' W 005°10'0 0.5
2014-Oct-21 08:33N 36°05' W 005°10'0 0.4
2014-Oct-21 07:34N 36°06' W 005°10'1 0.1
2014-Oct-21 03:25N 36°06' W 005°10'  

Dump ship's entire track history